Location: Unspecified
(0.0000°N, 0.0000°E)
Time: 11:06:01
(UTC+01:00)

Cosmos 1300 - Visible Passes

Search period start: 31 January 2015 00:00
Search period end: 10 February 2015 00:00
Orbit: 525 x 528 km, 82.5° (Epoch: 29 January)

Date Brightness Start Highest point End Pass type
(mag) Time Alt. Az. Time Alt. Az. Time Alt. Az.
31 Jan 4.8 05:46:23 10° SSE 05:49:45 29° E 05:53:09 10° NNE visible
01 Feb 5.0 05:34:49 10° SSE 05:38:01 25° E 05:41:16 10° NE visible
02 Feb 5.2 05:23:16 10° SE 05:26:15 22° E 05:29:20 10° NE visible
03 Feb 5.4 05:11:45 10° SE 05:14:30 19° E 05:17:22 10° NE visible
04 Feb 5.5 05:00:16 10° SE 05:02:43 17° E 05:05:20 10° NE visible
04 Feb 4.5 06:36:36 10° WSW 06:38:34 13° W 06:40:17 10° WNW visible
05 Feb 5.7 04:48:51 10° SE 04:50:56 15° E 04:51:08 15° E visible
05 Feb 4.4 06:24:24 10° WSW 06:26:10 15° W 06:26:10 15° W visible
